COSMOS 2468 - Orbit

View from above orbital plane
View from above orbital plane
View from above satellite
View from above satellite

Ground track
Ground track

The orbit data is extracted from the following two-line orbital elements,

1 37154U 10043C   13138.06232111  .00000010  00000-0  00000+0 0  6942
2 37154 082.4616 172.7752 0012702 310.1774 049.8198 12.42869888122061
Epoch (UTC): 18 May 2013 01:29:44
Eccentricity: 0.0012702
inclination: 82.4616°
perigee height: 1484 km
apogee height: 1504 km
right ascension of ascending node: 172.7752°
argument of perigee: 310.1774°
revolutions per day: 12.42869888
mean anomaly at epoch: 49.8198°
orbit number at epoch: 12206

The dashed part of the orbit path shows where the satellite is in the earth's shadow,  

Developed and maintained by Chris Peat, Heavens-Above GmbH. Please read the updated FAQ before sending e-mail. Imprint. DLR